Time,TemperatureF,DewpointF,PressureIn,WindDirection,WindDirectionDegrees,WindSpeedMPH,WindSpeedGustMPH,Humidity,HourlyPrecipIn,Conditions,Clouds,dailyrainin,SolarRadiationWatts/m^2,SoftwareType,DateUTC
2013-04-05 00:09:00,41.5,27.0,30.12,WSW,240,1.0,13.0,57,0.00,,,0.00,0,weatherlink.com 1.10,2013-04-05 04:09:00,
2013-04-05 00:24:00,41.1,27.0,30.12,WSW,241,4.0,13.0,58,0.00,,,0.00,0,weatherlink.com 1.10,2013-04-05 04:24:00,
2013-04-05 00:39:00,40.9,28.0,30.11,WSW,244,8.0,13.0,60,0.00,,,0.00,0,weatherlink.com 1.10,2013-04-05 04:39:00,
2013-04-05 00:54:00,40.7,28.0,30.11,SSW,200,7.0,12.0,62,0.00,,,0.00,0,weatherlink.com 1.10,2013-04-05 04:54:00,
2013-04-05 01:09:00,40.5,29.0,30.10,WSW,240,8.0,13.0,64,0.00,,,0.00,0,weatherlink.com 1.10,2013-04-05 05:09:00,
2013-04-05 01:24:00,40.2,29.0,30.09,West,264,3.0,14.0,65,0.00,,,0.00,0,weatherlink.com 1.10,2013-04-05 05:24:00,
2013-04-05 01:39:00,40.0,30.0,30.09,SSW,213,5.0,11.0,67,0.00,,,0.00,0,weatherlink.com 1.10,2013-04-05 05:39:00,
2013-04-05 01:54:00,39.9,30.0,30.08,WSW,258,6.0,12.0,68,0.00,,,0.00,0,weatherlink.com 1.10,2013-04-05 05:54:00,
2013-04-05 02:24:00,39.8,30.0,30.07,SW,227,5.0,11.0,69,0.00,,,0.00,0,weatherlink.com 1.10,2013-04-05 06:24:00,
2013-04-05 02:39:00,39.7,30.0,30.06,WSW,244,4.0,10.0,69,0.00,,,0.00,0,weatherlink.com 1.10,2013-04-05 06:39:00,
2013-04-05 02:54:00,39.7,30.0,30.05,SW,229,3.0,11.0,69,0.00,,,0.00,0,weatherlink.com 1.10,2013-04-05 06:54:00,
2013-04-05 03:09:00,39.7,30.0,30.05,SSW,201,10.0,15.0,68,0.00,,,0.00,0,weatherlink.com 1.10,2013-04-05 07:09:00,
2013-04-05 03:24:00,39.6,30.0,30.04,SW,216,5.0,10.0,68,0.00,,,0.00,0,weatherlink.com 1.10,2013-04-05 07:24:00,
2013-04-05 03:39:00,39.6,30.0,30.04,WSW,242,6.0,12.0,68,0.00,,,0.00,0,weatherlink.com 1.10,2013-04-05 07:39:00,
2013-04-05 03:54:00,39.5,30.0,30.03,SSW,209,4.0,9.0,68,0.00,,,0.00,0,weatherlink.com 1.10,2013-04-05 07:54:00,
2013-04-05 04:09:00,39.5,30.0,30.03,SW,214,3.0,8.0,69,0.00,,,0.00,0,weatherlink.com 1.10,2013-04-05 08:09:00,
2013-04-05 04:24:00,39.5,30.0,30.02,SW,217,2.0,10.0,69,0.00,,,0.00,0,weatherlink.com 1.10,2013-04-05 08:24:00,
2013-04-05 05:09:00,39.6,30.0,30.02,West,265,8.0,11.0,68,0.00,,,0.00,0,weatherlink.com 1.10,2013-04-05 09:09:00,
2013-04-05 05:24:00,39.6,30.0,30.01,SW,232,4.0,9.0,68,0.00,,,0.00,0,weatherlink.com 1.10,2013-04-05 09:24:00,
2013-04-05 05:39:00,39.6,29.0,30.01,West,262,3.0,10.0,67,0.00,,,0.00,0,weatherlink.com 1.10,2013-04-05 09:39:00,
2013-04-05 05:54:00,39.6,29.0,30.00,SW,227,2.0,11.0,67,0.00,,,0.00,0,weatherlink.com 1.10,2013-04-05 09:54:00,
2013-04-05 06:09:00,39.7,29.0,30.00,SW,218,6.0,12.0,66,0.00,,,0.00,0,weatherlink.com 1.10,2013-04-05 10:09:00,
2013-04-05 06:24:00,40.0,29.0,29.99,WSW,247,4.0,13.0,65,0.00,,,0.00,0,weatherlink.com 1.10,2013-04-05 10:24:00,
2013-04-05 06:39:00,40.1,29.0,29.99,SW,233,3.0,10.0,65,0.00,,,0.00,0,weatherlink.com 1.10,2013-04-05 10:39:00,
2013-04-05 06:54:00,40.2,29.0,30.00,WSW,247,6.0,11.0,64,0.00,,,0.00,0,weatherlink.com 1.10,2013-04-05 10:54:00,
2013-04-05 07:09:00,40.4,29.0,30.00,West,269,3.0,10.0,64,0.00,,,0.00,0,weatherlink.com 1.10,2013-04-05 11:09:00,
2013-04-05 07:25:00,40.7,29.0,30.00,SW,232,3.0,10.0,64,0.00,,,0.00,0,weatherlink.com 1.10,2013-04-05 11:25:00,
2013-04-05 07:40:00,40.9,29.0,30.00,West,265,6.0,7.0,64,0.00,,,0.00,0,weatherlink.com 1.10,2013-04-05 11:40:00,
2013-04-05 07:55:00,41.2,30.0,29.99,WSW,240,5.0,10.0,64,0.00,,,0.00,0,weatherlink.com 1.10,2013-04-05 11:55:00,
2013-04-05 08:10:00,41.5,30.0,29.99,WSW,243,4.0,10.0,64,0.00,,,0.00,0,weatherlink.com 1.10,2013-04-05 12:10:00,
2013-04-05 08:25:00,41.7,30.0,29.98,SW,224,10.0,12.0,64,0.00,,,0.00,0,weatherlink.com 1.10,2013-04-05 12:25:00,
2013-04-05 08:40:00,42.0,31.0,29.97,SW,218,4.0,9.0,64,0.00,,,0.00,0,weatherlink.com 1.10,2013-04-05 12:40:00,
2013-04-05 08:55:00,42.5,31.0,29.96,SW,226,2.0,9.0,64,0.00,,,0.00,0,weatherlink.com 1.10,2013-04-05 12:55:00,
2013-04-05 09:10:00,42.9,31.0,29.96,WSW,244,10.0,11.0,62,0.00,,,0.00,0,weatherlink.com 1.10,2013-04-05 13:10:00,
2013-04-05 09:25:00,43.5,31.0,29.96,West,264,3.0,14.0,61,0.00,,,0.00,0,weatherlink.com 1.10,2013-04-05 13:25:00,
2013-04-05 09:40:00,43.8,31.0,29.95,WSW,254,3.0,11.0,60,0.00,,,0.00,0,weatherlink.com 1.10,2013-04-05 13:40:00,
2013-04-05 09:55:00,44.4,30.0,29.95,SW,224,4.0,11.0,58,0.00,,,0.00,0,weatherlink.com 1.10,2013-04-05 13:55:00,
2013-04-05 10:10:00,45.0,30.0,29.94,SSW,213,7.0,8.0,57,0.00,,,0.00,0,weatherlink.com 1.10,2013-04-05 14:10:00,
2013-04-05 10:25:00,45.6,30.0,29.93,WSW,244,3.0,9.0,55,0.00,,,0.00,0,weatherlink.com 1.10,2013-04-05 14:25:00,
2013-04-05 10:40:00,46.2,29.0,29.92,WSW,241,7.0,10.0,52,0.00,,,0.00,0,weatherlink.com 1.10,2013-04-05 14:40:00,
2013-04-05 10:55:00,46.6,29.0,29.91,SSW,204,2.0,10.0,51,0.00,,,0.00,0,weatherlink.com 1.10,2013-04-05 14:55:00,
2013-04-05 11:10:00,46.7,28.0,29.91,WSW,249,6.0,12.0,49,0.00,,,0.00,0,weatherlink.com 1.10,2013-04-05 15:10:00,
2013-04-05 11:25:00,46.9,27.0,29.90,West,267,6.0,11.0,47,0.00,,,0.00,0,weatherlink.com 1.10,2013-04-05 15:25:00,
2013-04-05 11:40:00,47.6,28.0,29.89,SW,227,5.0,9.0,47,0.00,,,0.00,0,weatherlink.com 1.10,2013-04-05 15:40:00,
2013-04-05 11:55:00,48.7,28.0,29.88,WSW,257,7.0,10.0,45,0.00,,,0.00,0,weatherlink.com 1.10,2013-04-05 15:55:00,
2013-04-05 12:10:00,49.4,29.0,29.87,West,260,5.0,9.0,46,0.00,,,0.00,0,weatherlink.com 1.10,2013-04-05 16:10:00,
2013-04-05 12:25:00,50.1,29.0,29.86,SW,225,4.0,8.0,45,0.00,,,0.00,0,weatherlink.com 1.10,2013-04-05 16:25:00,
2013-04-05 12:40:00,49.9,29.0,29.85,WNW,284,5.0,10.0,45,0.00,,,0.00,0,weatherlink.com 1.10,2013-04-05 16:40:00,
2013-04-05 12:55:00,50.0,29.0,29.83,SW,234,5.0,9.0,45,0.00,,,0.00,0,weatherlink.com 1.10,2013-04-05 16:55:00,
2013-04-05 13:10:00,50.6,29.0,29.82,WSW,242,4.0,10.0,43,0.00,,,0.00,0,weatherlink.com 1.10,2013-04-05 17:10:00,
2013-04-05 13:26:00,52.1,28.0,29.81,SSW,209,1.0,8.0,40,0.00,,,0.00,0,weatherlink.com 1.10,2013-04-05 17:26:00,
2013-04-05 13:41:00,52.0,26.0,29.80,SW,227,3.0,8.0,37,0.00,,,0.00,0,weatherlink.com 1.10,2013-04-05 17:41:00,
2013-04-05 14:26:00,55.6,27.0,29.75,WSW,238,4.0,8.0,33,0.00,,,0.00,0,weatherlink.com 1.10,2013-04-05 18:26:00,
2013-04-05 14:41:00,55.9,26.0,29.74,NW,306,2.0,5.0,32,0.00,,,0.00,751,weatherlink.com 1.10,2013-04-05 18:41:00,
2013-04-05 14:56:00,56.8,26.0,29.73,West,261,3.0,7.0,30,0.00,,,0.00,731,weatherlink.com 1.10,2013-04-05 18:56:00,
2013-04-05 15:11:00,57.1,23.0,29.73,West,281,2.0,10.0,27,0.00,,,0.00,698,weatherlink.com 1.10,2013-04-05 19:11:00,
2013-04-05 15:26:00,57.9,23.0,29.72,West,261,5.0,7.0,26,0.00,,,0.00,663,weatherlink.com 1.10,2013-04-05 19:26:00,
2013-04-05 15:41:00,59.1,23.0,29.71,South,181,2.0,6.0,25,0.00,,,0.00,622,weatherlink.com 1.10,2013-04-05 19:41:00,
2013-04-05 16:11:00,59.1,22.0,29.69,NNW,332,4.0,9.0,24,0.00,,,0.00,540,weatherlink.com 1.10,2013-04-05 20:11:00,
2013-04-05 16:26:00,59.9,22.0,29.69,NW,319,6.0,9.0,23,0.00,,,0.00,487,weatherlink.com 1.10,2013-04-05 20:26:00,
2013-04-05 16:41:00,59.9,22.0,29.69,West,259,2.0,5.0,23,0.00,,,0.00,450,weatherlink.com 1.10,2013-04-05 20:41:00,
2013-04-05 16:56:00,61.2,24.0,29.68,NW,323,11.0,16.0,24,0.00,,,0.00,403,weatherlink.com 1.10,2013-04-05 20:56:00,
2013-04-05 17:26:00,61.0,22.0,29.70,NW,311,10.0,19.0,22,0.00,,,0.00,295,weatherlink.com 1.10,2013-04-05 21:26:00,
2013-04-05 17:41:00,60.1,22.0,29.70,NW,316,13.0,17.0,23,0.00,,,0.00,243,weatherlink.com 1.10,2013-04-05 21:41:00,
2013-04-05 17:56:00,59.7,22.0,29.71,NNW,337,12.0,21.0,23,0.00,,,0.00,185,weatherlink.com 1.10,2013-04-05 21:56:00,
2013-04-05 18:11:00,58.7,23.0,29.72,NW,313,5.0,18.0,25,0.00,,,0.00,128,weatherlink.com 1.10,2013-04-05 22:11:00,
2013-04-05 18:26:00,58.1,22.0,29.73,NW,306,9.0,18.0,25,0.00,,,0.00,81,weatherlink.com 1.10,2013-04-05 22:26:00,
2013-04-05 18:41:00,57.0,23.0,29.74,NW,311,8.0,18.0,27,0.00,,,0.00,44,weatherlink.com 1.10,2013-04-05 22:41:00,
2013-04-05 18:56:00,56.0,22.0,29.76,North,360,11.0,14.0,27,0.00,,,0.00,21,weatherlink.com 1.10,2013-04-05 22:56:00,
2013-04-05 19:11:00,55.4,22.0,29.77,North,350,5.0,13.0,27,0.00,,,0.00,7,weatherlink.com 1.10,2013-04-05 23:11:00,
2013-04-05 19:26:00,54.9,21.0,29.77,NNW,339,14.0,14.0,27,0.00,,,0.00,0,weatherlink.com 1.10,2013-04-05 23:26:00,
2013-04-05 19:41:00,54.4,21.0,29.77,NW,325,3.0,14.0,27,0.00,,,0.00,0,weatherlink.com 1.10,2013-04-05 23:41:00,
2013-04-05 19:56:00,53.9,21.0,29.78,NNW,328,4.0,10.0,28,0.00,,,0.00,0,weatherlink.com 1.10,2013-04-05 23:56:00,
2013-04-05 20:11:00,53.0,23.0,29.80,North,351,5.0,18.0,31,0.00,,,0.00,0,weatherlink.com 1.10,2013-04-06 00:11:00,
2013-04-05 20:26:00,51.9,25.0,29.81,NE,46,9.0,13.0,35,0.00,,,0.00,0,weatherlink.com 1.10,2013-04-06 00:26:00,
2013-04-05 20:41:00,50.7,26.0,29.83,North,355,5.0,18.0,38,0.00,,,0.00,0,weatherlink.com 1.10,2013-04-06 00:41:00,
2013-04-05 20:57:00,50.0,26.0,29.85,NNW,344,7.0,17.0,39,0.00,,,0.00,0,weatherlink.com 1.10,2013-04-06 00:57:00,
2013-04-05 21:11:00,49.0,24.0,29.86,NW,317,15.0,21.0,38,0.00,,,0.00,0,weatherlink.com 1.10,2013-04-06 01:11:00,
2013-04-05 21:41:00,47.8,24.0,29.88,NW,311,12.0,12.0,40,0.00,,,0.00,0,weatherlink.com 1.10,2013-04-06 01:41:00,
2013-04-05 21:56:00,46.7,26.0,29.89,North,351,7.0,20.0,44,0.00,,,0.00,0,weatherlink.com 1.10,2013-04-06 01:56:00,
2013-04-05 22:11:00,45.2,27.0,29.90,NNW,338,12.0,25.0,49,0.00,,,0.00,0,weatherlink.com 1.10,2013-04-06 02:11:00,
2013-04-05 22:26:00,44.3,27.0,29.91,NNW,340,11.0,16.0,51,0.00,,,0.00,0,weatherlink.com 1.10,2013-04-06 02:26:00,
2013-04-05 22:41:00,43.7,27.0,29.91,NW,309,4.0,19.0,52,0.00,,,0.00,0,weatherlink.com 1.10,2013-04-06 02:41:00,
2013-04-05 22:56:00,43.0,26.0,29.92,NW,313,9.0,17.0,52,0.00,,,0.00,0,weatherlink.com 1.10,2013-04-06 02:56:00,
2013-04-05 23:11:00,42.5,26.0,29.92,NNW,329,9.0,18.0,52,0.00,,,0.00,0,weatherlink.com 1.10,2013-04-06 03:11:00,
2013-04-05 23:41:00,41.7,26.0,29.94,WNW,299,3.0,13.0,55,0.00,,,0.00,0,weatherlink.com 1.10,2013-04-06 03:41:00,
2013-04-05 23:56:00,41.4,27.0,29.94,NNW,345,11.0,13.0,56,0.00,,,0.00,0,weatherlink.com 1.10,2013-04-06 03:56:00,